RYR54HT EPMO-LGSA

Flight info

Callsign RYR54HT
Flight time N/A
Altitude 38000
Route EVINA M66 BABKO/N0462F370 DCT PARAK DCT RAXAD DCT MAKED UL617 SKP UM749 ATV UP169 MANOK L612 RUSOS
Aircraft B738/M-SDE2E3FGHIRWXY/LB1

Departure

Time 2026-04-21 12:58
Airport Warsaw Modlin Airport (EPMO)

Arrival

Time N/A
Airport Chania International Airport (LGSA)
Time Latitude Longitude Altitude Speed Heading
2026-04-21 12:54 52.44702 20.64307 335 ft 12 kts 261°
2026-04-21 12:54 52.44690 20.64185 336 ft 11 kts 261°
2026-04-21 12:55 52.44675 20.64023 335 ft 18 kts 261°
2026-04-21 12:55 52.44655 20.63815 335 ft 18 kts 261°
2026-04-21 12:55 52.44637 20.63625 337 ft 16 kts 261°
2026-04-21 12:55 52.44640 20.63469 335 ft 12 kts 315°
2026-04-21 12:56 52.44705 20.63437 337 ft 9 kts 354°
2026-04-21 12:56 52.44724 20.63432 337 ft 10 kts 352°
2026-04-21 12:56 52.44827 20.63407 334 ft 19 kts 351°
2026-04-21 12:56 52.44944 20.63425 334 ft 15 kts 38°
2026-04-21 12:57 52.44965 20.63509 337 ft 0 kts 81°
2026-04-21 12:57 52.44976 20.63632 335 ft 41 kts 81°
2026-04-21 12:57 52.45058 20.64500 337 ft 111 kts 80°
2026-04-21 12:57 52.45204 20.66085 378 ft 165 kts 80°
2026-04-21 12:58 52.45390 20.67970 1148 ft 160 kts 78°
2026-04-21 12:58 52.45585 20.69811 1901 ft 172 kts 77°
2026-04-21 12:58 52.45822 20.71937 2255 ft 205 kts 77°
2026-04-21 12:58 52.45769 20.74404 2551 ft 233 kts 111°
2026-04-21 12:59 52.44667 20.76394 3150 ft 246 kts 149°
2026-04-21 12:59 52.43543 20.77044 3494 ft 260 kts 170°
2026-04-21 12:59 52.41685 20.77016 4162 ft 273 kts 189°
2026-04-21 12:59 52.39835 20.76325 5124 ft 274 kts 194°
2026-04-21 13:00 52.37979 20.75514 6005 ft 277 kts 195°
2026-04-21 13:00 52.36104 20.74676 6867 ft 281 kts 195°
2026-04-21 13:00 52.34203 20.73839 7705 ft 285 kts 194°
2026-04-21 13:00 52.32275 20.73012 8496 ft 289 kts 194°
2026-04-21 13:01 52.30313 20.72187 9280 ft 293 kts 194°
2026-04-21 13:01 52.28495 20.71430 9996 ft 297 kts 193°
2026-04-21 13:01 52.27695 20.71101 10294 ft 299 kts 193°
2026-04-21 13:02 52.26916 20.70782 10521 ft 304 kts 193°
2026-04-21 13:02 52.22472 20.68980 10948 ft 353 kts 192°
2026-04-21 13:03 52.20018 20.67989 11245 ft 372 kts 192°
2026-04-21 13:03 52.17481 20.66968 11869 ft 378 kts 192°
2026-04-21 13:03 52.14909 20.65935 12572 ft 383 kts 192°
2026-04-21 13:03 52.12301 20.64890 13272 ft 386 kts 192°
2026-04-21 13:04 52.09678 20.63841 13975 ft 389 kts 192°
2026-04-21 13:04 52.07038 20.62785 14672 ft 392 kts 192°
2026-04-21 13:04 52.04373 20.61723 15336 ft 396 kts 191°
2026-04-21 13:04 52.01680 20.60653 15959 ft 400 kts 191°
2026-04-21 13:05 51.98965 20.59576 16572 ft 403 kts 191°
2026-04-21 13:05 51.96234 20.58493 17280 ft 403 kts 191°
2026-04-21 13:05 51.93499 20.57408 17910 ft 407 kts 191°
2026-04-21 13:05 51.90732 20.56312 18424 ft 412 kts 191°
2026-04-21 13:06 51.87938 20.55207 18982 ft 415 kts 191°
2026-04-21 13:06 51.85114 20.54090 19536 ft 419 kts 191°
2026-04-21 13:06 51.82271 20.52970 20072 ft 422 kts 191°
2026-04-21 13:06 51.79408 20.51843 20603 ft 425 kts 191°
2026-04-21 13:07 51.76561 20.50723 21065 ft 429 kts 191°
2026-04-21 13:07 51.73614 20.49567 21548 ft 432 kts 191°
2026-04-21 13:07 51.70720 20.48432 22019 ft 435 kts 191°
2026-04-21 13:07 51.67769 20.47274 22451 ft 439 kts 191°
2026-04-21 13:08 51.65754 20.46485 22747 ft 441 kts 191°
2026-04-21 13:08 51.61793 20.44937 23341 ft 444 kts 191°
2026-04-21 13:08 51.58777 20.43760 23761 ft 447 kts 191°
2026-04-21 13:08 51.55744 20.42578 24168 ft 450 kts 191°
2026-04-21 13:09 51.52695 20.41391 24563 ft 452 kts 191°
2026-04-21 13:09 51.49622 20.40196 24939 ft 456 kts 191°
2026-04-21 13:09 51.46525 20.38993 25340 ft 458 kts 191°
2026-04-21 13:09 51.43423 20.37790 25706 ft 460 kts 191°
2026-04-21 13:10 51.40294 20.36579 26059 ft 463 kts 191°
2026-04-21 13:10 51.38224 20.35748 26284 ft 465 kts 193°
2026-04-21 13:10 51.34094 20.33755 26702 ft 469 kts 196°
2026-04-21 13:10 51.30993 20.32111 27058 ft 471 kts 197°
2026-04-21 13:11 51.27876 20.30427 27382 ft 473 kts 197°
2026-04-21 13:11 51.24743 20.28746 27666 ft 475 kts 196°
2026-04-21 13:11 51.22623 20.27622 27870 ft 477 kts 196°
2026-04-21 13:11 51.19467 20.25969 28175 ft 479 kts 196°
2026-04-21 13:12 51.16296 20.24323 28462 ft 480 kts 196°
2026-04-21 13:12 51.13154 20.22704 28736 ft 482 kts 196°
2026-04-21 13:12 51.09947 20.21055 28997 ft 484 kts 196°
2026-04-21 13:12 51.06737 20.19407 29341 ft 484 kts 196°
2026-04-21 13:13 51.03550 20.17770 29791 ft 480 kts 196°
2026-04-21 13:13 51.00374 20.16139 30156 ft 479 kts 196°
2026-04-21 13:13 50.97204 20.14516 30454 ft 480 kts 197°
2026-04-21 13:13 50.94026 20.12891 30812 ft 478 kts 197°
2026-04-21 13:14 50.90857 20.11274 31203 ft 476 kts 197°
2026-04-21 13:14 50.87706 20.09680 31565 ft 475 kts 197°
2026-04-21 13:14 50.84561 20.08095 31865 ft 474 kts 197°
2026-04-21 13:14 50.81417 20.06513 32174 ft 474 kts 197°
2026-04-21 13:15 50.78319 20.04950 32480 ft 473 kts 197°
2026-04-21 13:15 50.75200 20.03371 32821 ft 471 kts 197°
2026-04-21 13:15 50.72068 20.01784 33134 ft 470 kts 197°
2026-04-21 13:15 50.68952 20.00204 33393 ft 470 kts 198°
2026-04-21 13:16 50.65838 19.98624 33659 ft 470 kts 198°
2026-04-21 13:16 50.62728 19.97049 33957 ft 469 kts 198°
2026-04-21 13:16 50.59623 19.95480 34251 ft 467 kts 198°
2026-04-21 13:16 50.56523 19.93918 34454 ft 468 kts 198°
2026-04-21 13:17 50.53420 19.92357 34690 ft 468 kts 198°
2026-04-21 13:17 50.50312 19.90795 34945 ft 468 kts 198°
2026-04-21 13:17 50.47203 19.89234 35180 ft 468 kts 198°
2026-04-21 13:17 50.44099 19.87679 35396 ft 468 kts 198°
2026-04-21 13:18 50.41003 19.86125 35621 ft 468 kts 198°
2026-04-21 13:18 50.37904 19.84573 35868 ft 467 kts 198°
2026-04-21 13:18 50.34837 19.83043 36069 ft 468 kts 198°
2026-04-21 13:18 50.31730 19.81496 36248 ft 468 kts 198°
2026-04-21 13:19 50.28626 19.79952 36446 ft 468 kts 198°
2026-04-21 13:19 50.25519 19.78408 36634 ft 468 kts 198°
2026-04-21 13:19 50.22409 19.76866 36880 ft 467 kts 198°
2026-04-21 13:19 50.19328 19.75335 37150 ft 465 kts 198°
2026-04-21 13:20 50.13173 19.72293 37126 ft 465 kts 198°
2026-04-21 13:20 50.07040 19.69269 37122 ft 459 kts 198°
2026-04-21 13:21 50.00960 19.66279 37128 ft 457 kts 198°
2026-04-21 13:21 49.94909 19.63304 37132 ft 455 kts 199°
2026-04-21 13:22 49.88905 19.60365 37131 ft 455 kts 199°
2026-04-21 13:22 49.82869 19.57419 37133 ft 454 kts 199°
2026-04-21 13:23 49.76828 19.54474 37125 ft 456 kts 199°
2026-04-21 13:23 49.70763 19.51530 37123 ft 457 kts 199°
2026-04-21 13:24 49.64665 19.48586 37124 ft 460 kts 197°
2026-04-21 13:24 49.58363 19.47355 37120 ft 464 kts 178°
2026-04-21 13:25 49.51936 19.48511 37113 ft 466 kts 173°
2026-04-21 13:25 49.45501 19.49870 37114 ft 467 kts 173°
2026-04-21 13:26 49.39055 19.51172 37103 ft 468 kts 174°
2026-04-21 13:26 49.32591 19.52425 37102 ft 468 kts 174°
2026-04-21 13:27 49.26132 19.53655 37105 ft 467 kts 174°
2026-04-21 13:27 49.19668 19.54886 37086 ft 467 kts 174°
2026-04-21 13:28 49.13206 19.56120 37093 ft 467 kts 174°
2026-04-21 13:28 49.06797 19.57337 37097 ft 466 kts 174°
2026-04-21 13:29 49.00365 19.58556 37086 ft 466 kts 174°
2026-04-21 13:29 48.93935 19.59769 37084 ft 465 kts 174°
2026-04-21 13:30 48.87505 19.60982 37091 ft 465 kts 175°
2026-04-21 13:30 48.81112 19.62185 37075 ft 465 kts 175°
2026-04-21 13:31 48.74657 19.63395 37088 ft 464 kts 175°
2026-04-21 13:31 48.71968 19.63898 37077 ft 463 kts 175°
2026-04-21 13:32 48.65567 19.65090 37078 ft 464 kts 175°
2026-04-21 13:32 48.59154 19.66285 37075 ft 464 kts 175°
2026-04-21 13:33 48.52746 19.67477 37077 ft 464 kts 175°
2026-04-21 13:33 48.46334 19.68665 37069 ft 465 kts 175°
2026-04-21 13:34 48.39912 19.69853 37074 ft 465 kts 175°
2026-04-21 13:34 48.33477 19.71042 37072 ft 466 kts 175°
2026-04-21 13:35 48.27029 19.72224 37074 ft 466 kts 175°
2026-04-21 13:35 48.20624 19.73400 37062 ft 467 kts 176°
2026-04-21 13:36 48.19628 19.73583 37063 ft 467 kts 176°
2026-04-21 13:36 48.13167 19.74765 37066 ft 467 kts 176°
2026-04-21 13:37 48.06703 19.75946 37069 ft 467 kts 176°
2026-04-21 13:37 48.00241 19.77123 37056 ft 467 kts 176°
2026-04-21 13:38 47.93783 19.78296 37057 ft 467 kts 176°
2026-04-21 13:38 47.87326 19.79464 37057 ft 467 kts 176°
2026-04-21 13:39 47.80879 19.80626 37057 ft 467 kts 176°
2026-04-21 13:39 47.74433 19.81786 37054 ft 466 kts 176°
2026-04-21 13:40 47.68035 19.82940 37055 ft 466 kts 176°
2026-04-21 13:40 47.63151 19.83818 37055 ft 466 kts 176°
2026-04-21 13:41 47.56702 19.84973 37053 ft 466 kts 176°
2026-04-21 13:41 47.50266 19.86121 37055 ft 465 kts 176°
2026-04-21 13:42 47.43838 19.87264 37058 ft 465 kts 176°
2026-04-21 13:42 47.37449 19.88399 37055 ft 465 kts 176°
2026-04-21 13:43 47.31014 19.89540 37047 ft 466 kts 176°
2026-04-21 13:43 47.24580 19.90678 37047 ft 465 kts 177°
2026-04-21 13:44 47.18149 19.91812 37049 ft 465 kts 177°
2026-04-21 13:44 47.11703 19.92944 37045 ft 465 kts 177°
2026-04-21 13:45 47.05268 19.94076 37047 ft 465 kts 177°
2026-04-21 13:45 46.98876 19.95199 37053 ft 465 kts 177°
2026-04-21 13:46 46.92448 19.96319 37049 ft 465 kts 178°
2026-04-21 13:46 46.86015 19.97440 37041 ft 465 kts 178°
2026-04-21 13:47 46.79602 19.98555 37047 ft 464 kts 178°
2026-04-21 13:47 46.73179 19.99668 37044 ft 464 kts 178°
2026-04-21 13:48 46.66803 20.00770 37042 ft 464 kts 178°
2026-04-21 13:48 46.60397 20.01877 37047 ft 464 kts 178°
2026-04-21 13:49 46.53975 20.02982 37047 ft 464 kts 178°
2026-04-21 13:49 46.47556 20.04085 37050 ft 464 kts 179°
2026-04-21 13:50 46.41168 20.05181 37047 ft 464 kts 178°
2026-04-21 13:50 46.34754 20.06276 37049 ft 464 kts 179°
2026-04-21 13:51 46.28330 20.07371 37040 ft 464 kts 179°
2026-04-21 13:51 46.21914 20.08464 37032 ft 464 kts 179°
2026-04-21 13:52 46.15514 20.09913 37027 ft 470 kts 169°
2026-04-21 13:52 46.09383 20.13383 37031 ft 475 kts 161°
2026-04-21 13:53 46.06421 20.15587 36875 ft 485 kts 151°
2026-04-21 13:53 46.03794 20.18771 36177 ft 505 kts 133°
2026-04-21 13:53 46.01972 20.23099 34404 ft 526 kts 109°
2026-04-21 13:53 46.01510 20.28399 31378 ft 553 kts 78°
2026-04-21 13:54 46.03053 20.33480 27929 ft 563 kts 41°
2026-04-21 13:54 46.06308 20.36161 25607 ft 528 kts
2026-04-21 13:54 46.09605 20.35127 24810 ft 467 kts 319°
2026-04-21 13:54 46.11168 20.31399 24233 ft 437 kts 275°
2026-04-21 13:55 46.10258 20.27286 22936 ft 455 kts 231°
2026-04-21 13:55 46.07343 20.25344 21322 ft 495 kts 184°
2026-04-21 13:55 46.04126 20.27134 19968 ft 518 kts 135°
2026-04-21 13:55 46.02774 20.31744 19136 ft 505 kts 85°
2026-04-21 13:56 46.04167 20.36048 18460 ft 470 kts 34°
2026-04-21 13:56 46.07128 20.37105 17400 ft 442 kts 342°
2026-04-21 13:56 46.09298 20.34349 16057 ft 439 kts 289°
2026-04-21 13:56 46.08886 20.30118 14842 ft 451 kts 234°
2026-04-21 13:57 46.06148 20.28165 13979 ft 459 kts 179°
2026-04-21 13:57 46.03423 20.30189 13285 ft 452 kts 124°
2026-04-21 13:57 46.02915 20.34415 12493 ft 435 kts 69°
2026-04-21 13:57 46.04895 20.37361 11600 ft 415 kts 14°
2026-04-21 13:58 46.06747 20.37369 11125 ft 403 kts 339°
2026-04-21 13:58 46.08614 20.34660 10586 ft 390 kts 286°
2026-04-21 13:58 46.08179 20.30972 9976 ft 388 kts 233°
2026-04-21 13:58 46.05846 20.29213 9152 ft 396 kts 182°
2026-04-21 13:59 46.03375 20.30744 8405 ft 398 kts 130°
2026-04-21 13:59 46.02597 20.34396 7960 ft 385 kts 79°
2026-04-21 13:59 46.03933 20.37478 7629 ft 364 kts 30°
2026-04-21 13:59 46.06317 20.37980 6992 ft 353 kts 340°
2026-04-21 14:00 46.08039 20.35639 6192 ft 354 kts 289°
2026-04-21 14:00 46.07833 20.32243 5604 ft 356 kts 240°
2026-04-21 14:00 46.05873 20.30254 5176 ft 354 kts 190°
2026-04-21 14:00 46.03554 20.31029 4654 ft 350 kts 141°
2026-04-21 14:01 46.02384 20.33962 4033 ft 344 kts 93°
2026-04-21 14:01 46.03111 20.37102 3374 ft 337 kts 43°
2026-04-21 14:01 46.05186 20.38303 2791 ft 328 kts 354°
2026-04-21 14:01 46.07079 20.36718 1715 ft 332 kts 300°
2026-04-21 14:02 46.07377 20.33590 946 ft 427 kts 252°
2026-04-21 14:02 46.06470 20.29646 3958 ft 428 kts 252°
2026-04-21 14:02 46.06390 20.29244 950 ft 428 kts 254°
2026-04-21 14:03 46.05231 20.24019 1971 ft 271 kts 251°
2026-04-21 14:03 46.04591 20.21518 3233 ft 256 kts 252°
2026-04-21 14:03 46.03793 20.19110 3283 ft 285 kts 229°
2026-04-21 14:03 46.02146 20.17608 3264 ft 282 kts 196°
2026-04-21 14:04 46.00244 20.17644 3199 ft 274 kts 161°
2026-04-21 14:04 45.98686 20.19121 3190 ft 267 kts 137°
2026-04-21 14:04 45.97051 20.20587 3193 ft 296 kts 156°
2026-04-21 14:04 45.95029 20.21759 3183 ft 324 kts 158°
2026-04-21 14:05 45.92944 20.22952 3186 ft 329 kts 158°
2026-04-21 14:05 45.92321 20.23310 3185 ft 329 kts 158°